This demonstration page uses our WeatherBlox Daily Observations layout. Learn more.

Left ArrowRight Arrow

Hourly Observations for June 18, 2020

Temp ( °F °C ) Dew Point ( °F °C ) Humidity (%) Winds ( mph kmh ) Pressure ( in mb ) Visibility ( mi km ) Precip ( " mm )
12:53 am 00:53 Cloudy 54 12.2 50 10 87 87 W 13 20 30.03 1017 10 16 N/A
1:53 am 01:53 Cloudy 54 12.2 50 10 87 87 W 14 22 30.02 1017 10 16 N/A
2:37 am 02:37 Cloudy 53 11.7 51 10.6 93 93 W 12 19 30.00 1016 10 16 0.00 0.00
2:53 am 02:53 Cloudy 53 11.7 51 10.6 93 93 W 10 17 30.02 1017 10 16 0.00 0.00
3:53 am 03:53 Cloudy 53 11.7 50 10 89 89 W 9 15 30.02 1017 10 16 N/A
4:29 am 04:29 Cloudy 52 11.1 50 10 93 93 WNW 7 11 30.02 1016 10 16 N/A
4:53 am 04:53 Cloudy with Light Rain 53 11.7 51 10.6 93 93 NW 12 19 30.03 1017 10 16 0.00 0.00
5:00 am 05:00 Cloudy with Light Rain 53 11.7 51 10.6 93 93 NNW 17 28 30.02 1017 9 14 0.00 0.00
5:46 am 05:46 Cloudy 51 10.6 48 8.9 89 89 NNW 10 17 30.05 1018 10 16 0.01 0.25
5:53 am 05:53 Cloudy 51 10.6 47 8.3 86 86 NNW 10 17 30.07 1018 10 16 0.01 0.25
6:53 am 06:53 Cloudy 52 11.1 47 8.3 83 83 NW 7 11 30.10 1019 10 16 N/A
7:53 am 07:53 Cloudy 52 11.1 47 8.3 83 83 NNW 9 15 30.13 1020 10 16 N/A
8:15 am 08:15 Cloudy 52 11.1 48 8.9 86 86 NW 10 17 30.12 1020 10 16 N/A
8:41 am 08:41 Mostly Cloudy 53 11.7 49 9.4 86 86 NNW 9 15 30.11 1020 10 16 0.01 0.25
8:53 am 08:53 Cloudy 53 11.7 47 8.3 80 80 NNW 10 17 30.14 1021 10 16 0.01 0.25
9:19 am 09:19 Mostly Cloudy 55 12.8 47 8.3 74 74 N 8 13 30.11 1020 10 16 N/A
9:53 am 09:53 Cloudy 56 13.3 46 7.8 70 70 N 9 15 30.14 1021 10 16 N/A
10:12 am 10:12 Cloudy with Heavy Rain 50 10 47 8.3 89 89 NW 16 26 30.15 1021 2 3 0.03 0.76
10:20 am 10:20 Cloudy with Light Rain 51 10.6 49 9.4 92 92 NW 13 20 30.15 1021 3 5 0.05 1.27
10:53 am 10:53 Cloudy 54 12.2 47 8.3 77 77 NNW 9 15 30.16 1021 10 16 0.06 1.52
11:53 am 11:53 Cloudy with Light Rain 54 12.2 46 7.8 75 75 WNW 7 11 30.16 1021 10 16 0.01 0.25
12:53 pm 12:53 Mostly Cloudy 58 14.4 45 7.2 62 62 NW 21 33 30.15 1021 10 16 0.00 0.00
1:53 pm 13:53 Mostly Sunny 60 15.6 42 5.6 52 52 NNW 15 24 30.14 1021 10 16 N/A
2:53 pm 14:53 Mostly Cloudy 61 16.1 38 3.3 43 43 NW 14 22 30.14 1021 10 16 N/A
3:53 pm 15:53 Mostly Cloudy 61 16.1 36 2.2 39 39 WNW 16 26 30.14 1021 10 16 N/A
4:53 pm 16:53 Partly Cloudy 62 16.7 36 2.2 38 38 NW 15 24 30.12 1020 10 16 N/A
5:53 pm 17:53 Sunny 63 17.2 36 2.2 37 37 NW 15 24 30.11 1020 10 16 N/A
6:53 pm 18:53 Sunny 63 17.2 36 2.2 37 37 WNW 12 19 30.10 1019 10 16 N/A
7:53 pm 19:53 Sunny 62 16.7 34 1.1 35 35 WNW 14 22 30.10 1019 10 16 N/A
8:53 pm 20:53 Sunny 56 13.3 38 3.3 51 51 WNW 6 9 30.10 1019 10 16 N/A
9:53 pm 21:53 Mostly Clear 52 11.1 38 3.3 59 59 NW 5 7 30.11 1020 10 16 N/A
10:53 pm 22:53 Clear 49 9.4 40 4.4 71 71 WSW 3 6 30.11 1020 10 16 N/A
11:53 pm 23:53 Clear 46 7.8 41 5 83 83 S 5 7 30.11 1020 10 16 N/A

Powered by AerisWeather